Station BGNN4 - 8519483 - BERGEN POINT WEST REACH- NY

Sailing guide
Sailing guide
english français italiano spagnolo
english français italiano español
Sea - Seek
Station BGNN4 - 8519483 - BERGEN POINT WEST REACH- NY
Station BGNN4 - 8519483 - BERGEN POINT WEST REACH- NY

Weather report - Station BGNN4 - 8519483 - BERGEN POINT WEST REACH- NY

Time Wind speed knots Wind direction Pressure ----
August 22, 2014 6:48 pm EDT 5 100 1017 Air Temperature:21.4
August 22, 2014 5:48 pm EDT 5 90 1017 Air Temperature:22
August 22, 2014 4:48 pm EDT 6 130 1017 Air Temperature:22
August 22, 2014 3:48 pm EDT 6 180 1017 Air Temperature:22.3
August 22, 2014 2:48 pm EDT 5 140 1017 Air Temperature:23.3
August 22, 2014 1:48 pm EDT 5 120 1017 Air Temperature:23.3
August 22, 2014 12:48 pm EDT 5 170 1017 Air Temperature:23.3
August 22, 2014 11:48 am EDT 7 120 1017 Air Temperature:22.2
August 22, 2014 10:48 am EDT 3 140 1018 Air Temperature:21.7
August 22, 2014 9:48 am EDT 4 100 1018 Air Temperature:21
August 22, 2014 8:48 am EDT 4 100 1017 Air Temperature:20.9
August 22, 2014 7:48 am EDT 2 100 1017 Air Temperature:20.5
August 22, 2014 6:48 am EDT 1 100 1017 Air Temperature:20.1
August 22, 2014 5:48 am EDT 3 90 1016 Air Temperature:19.9
August 22, 2014 4:48 am EDT 1 100 1016 Air Temperature:19.3
August 22, 2014 3:48 am EDT 2 80 1016 Air Temperature:19
August 22, 2014 2:48 am EDT 2 30 1017 Air Temperature:19
August 22, 2014 1:48 am EDT 4 150 1016 Air Temperature:19.1
August 22, 2014 12:48 am EDT 3 140 1017 Air Temperature:19.6
August 21, 2014 11:48 pm EDT 2 100 1018 Air Temperature:20
August 21, 2014 10:48 pm EDT 3 150 1017 Air Temperature:22.2
August 21, 2014 9:48 pm EDT 3 130 1017 Air Temperature:22.7
August 21, 2014 8:48 pm EDT 4 140 1017 Air Temperature:22.6
August 21, 2014 7:48 pm EDT 2 160 1017 Air Temperature:23
August 21, 2014 6:48 pm EDT 6 150 1016 Air Temperature:23.3
August 21, 2014 5:48 pm EDT 9 160 1016 Air Temperature:23.9
August 21, 2014 4:48 pm EDT 8 150 1017 Air Temperature:23.9
August 21, 2014 3:48 pm EDT 7 140 1017 Air Temperature:25